Time,TemperatureF,DewpointF,PressureIn,WindDirection,WindDirectionDegrees,WindSpeedMPH,WindSpeedGustMPH,Humidity,HourlyPrecipIn,Conditions,Clouds,dailyrainin,SoftwareType,DateUTC
2013-01-06 15:22:00,62.0,48.0,30.22,North,11,5.0,10.0,61,0.00,,,0.40,,2013-01-06 21:22:00,
2013-01-06 15:33:00,62.0,48.0,30.22,NNE,15,1.0,9.0,61,0.00,,,0.40,,2013-01-06 21:33:00,
2013-01-06 15:42:00,62.0,48.0,30.22,NNE,15,1.0,9.0,61,0.00,,,0.40,,2013-01-06 21:42:00,
2013-01-06 15:53:00,62.0,48.0,30.22,NNE,21,3.0,9.0,60,0.00,,,0.40,,2013-01-06 21:53:00,
2013-01-06 16:02:00,62.0,47.0,30.23,North,5,5.0,9.0,58,0.00,,,0.40,,2013-01-06 22:02:00,
2013-01-06 16:12:00,62.0,47.0,30.23,North,5,5.0,9.0,58,0.00,,,0.40,,2013-01-06 22:12:00,
2013-01-06 16:22:00,62.0,48.0,30.23,NNE,27,4.0,9.0,60,0.00,,,0.34,,2013-01-06 22:22:00,
2013-01-06 16:33:00,61.0,47.0,30.23,NE,34,2.0,8.0,61,0.00,,,0.34,,2013-01-06 22:33:00,
2013-01-06 16:43:00,61.0,47.0,30.23,NE,34,2.0,8.0,61,0.00,,,0.34,,2013-01-06 22:43:00,
2013-01-06 16:53:00,61.0,47.0,30.23,NNE,20,3.0,8.0,61,0.00,,,0.34,,2013-01-06 22:53:00,
2013-01-06 17:02:00,60.0,47.0,30.24,North,10,1.0,6.0,62,0.00,,,0.34,,2013-01-06 23:02:00,
2013-01-06 17:12:00,60.0,47.0,30.24,North,10,1.0,6.0,62,0.00,,,0.34,,2013-01-06 23:12:00,
2013-01-06 17:22:00,59.0,46.0,30.24,North,9,0.0,5.0,63,0.00,,,0.27,,2013-01-06 23:22:00,
2013-01-06 17:33:00,57.0,46.0,30.24,North,9,0.0,1.0,67,0.00,,,0.27,,2013-01-06 23:33:00,
2013-01-06 17:42:00,57.0,46.0,30.24,North,9,0.0,1.0,67,0.00,,,0.27,,2013-01-06 23:42:00,
2013-01-06 17:53:00,55.0,46.0,30.25,North,9,0.0,1.0,71,0.00,,,0.27,,2013-01-06 23:53:00,
2013-01-06 18:02:00,54.0,46.0,30.25,North,9,0.0,2.0,74,0.00,,,0.27,,2013-01-07 00:02:00,
2013-01-06 18:12:00,54.0,46.0,30.25,North,9,0.0,2.0,74,0.00,,,0.27,,2013-01-07 00:12:00,
2013-01-06 18:23:00,52.0,45.0,30.24,North,9,0.0,3.0,76,0.00,,,0.22,,2013-01-07 00:23:00,
2013-01-06 18:32:00,52.0,45.0,30.25,North,9,0.0,2.0,76,0.00,,,0.22,,2013-01-07 00:32:00,
2013-01-06 18:42:00,52.0,45.0,30.25,North,9,0.0,2.0,76,0.00,,,0.22,,2013-01-07 00:42:00,
2013-01-06 18:53:00,51.0,44.0,30.26,North,9,1.0,4.0,77,0.00,,,0.22,,2013-01-07 00:53:00,
2013-01-06 19:02:00,51.0,44.0,30.26,North,9,1.0,4.0,77,0.00,,,0.22,,2013-01-07 01:02:00,
2013-01-06 19:12:00,51.0,44.0,30.26,North,9,1.0,4.0,77,0.00,,,0.22,,2013-01-07 01:12:00,
2013-01-06 19:23:00,50.0,43.0,30.27,North,9,0.0,3.0,78,0.00,,,0.20,,2013-01-07 01:23:00,
2013-01-06 19:32:00,49.0,43.0,30.27,North,9,0.0,3.0,80,0.00,,,0.20,,2013-01-07 01:32:00,
2013-01-06 19:42:00,49.0,43.0,30.27,North,9,0.0,3.0,80,0.00,,,0.20,,2013-01-07 01:42:00,
2013-01-06 19:53:00,49.0,43.0,30.28,North,10,0.0,3.0,81,0.00,,,0.20,,2013-01-07 01:53:00,
2013-01-06 20:02:00,48.0,43.0,30.28,North,11,1.0,5.0,83,0.00,,,0.20,,2013-01-07 02:02:00,
2013-01-06 20:12:00,48.0,43.0,30.28,North,11,1.0,5.0,83,0.00,,,0.20,,2013-01-07 02:12:00,
2013-01-06 20:22:00,48.0,43.0,30.28,NNE,19,2.0,6.0,84,0.00,,,0.18,,2013-01-07 02:22:00,
2013-01-06 20:32:00,48.0,43.0,30.29,NNE,19,0.0,3.0,84,0.00,,,0.18,,2013-01-07 02:32:00,
2013-01-06 20:42:00,48.0,43.0,30.29,NNE,19,0.0,3.0,84,0.00,,,0.18,,2013-01-07 02:42:00,
2013-01-06 20:53:00,48.0,43.0,30.29,NNE,17,0.0,2.0,84,0.00,,,0.18,,2013-01-07 02:53:00,
2013-01-06 21:02:00,48.0,44.0,30.30,NNE,17,0.0,2.0,85,0.00,,,0.18,,2013-01-07 03:02:00,
2013-01-06 21:12:00,48.0,44.0,30.30,NNE,17,0.0,2.0,85,0.00,,,0.18,,2013-01-07 03:12:00,
2013-01-06 21:22:00,47.0,43.0,30.30,NNE,17,0.0,0.0,86,0.00,,,0.11,,2013-01-07 03:22:00,
2013-01-06 21:32:00,46.0,42.0,30.30,NNE,17,0.0,0.0,86,0.00,,,0.11,,2013-01-07 03:32:00,
2013-01-06 21:42:00,46.0,42.0,30.30,NNE,17,0.0,0.0,86,0.00,,,0.11,,2013-01-07 03:42:00,
2013-01-06 21:53:00,45.0,41.0,30.30,NNE,17,0.0,0.0,87,0.00,,,0.11,,2013-01-07 03:53:00,
2013-01-06 22:02:00,44.0,40.0,30.30,NNE,17,0.0,0.0,87,0.00,,,0.11,,2013-01-07 04:02:00,
2013-01-06 22:12:00,44.0,40.0,30.30,NNE,17,0.0,0.0,87,0.00,,,0.11,,2013-01-07 04:12:00,
2013-01-06 22:22:00,43.0,40.0,30.30,NNE,17,0.0,0.0,88,0.00,,,0.02,,2013-01-07 04:22:00,
2013-01-06 22:32:00,41.0,38.0,30.30,NNE,17,0.0,0.0,89,0.00,,,0.02,,2013-01-07 04:32:00,
2013-01-06 22:42:00,41.0,38.0,30.30,NNE,17,0.0,0.0,89,0.00,,,0.02,,2013-01-07 04:42:00,
2013-01-06 22:52:00,41.0,38.0,30.31,NNE,17,0.0,0.0,89,0.00,,,0.02,,2013-01-07 04:52:00,
2013-01-06 23:02:00,40.0,37.0,30.31,NNE,17,0.0,0.0,90,0.00,,,0.02,,2013-01-07 05:02:00,
2013-01-06 23:12:00,40.0,37.0,30.31,NNE,17,0.0,0.0,90,0.00,,,0.02,,2013-01-07 05:12:00,
2013-01-06 23:22:00,39.0,36.0,30.31,NNE,17,0.0,0.0,90,0.00,,,0.01,,2013-01-07 05:22:00,
2013-01-06 23:33:00,39.0,36.0,30.31,NNE,17,0.0,0.0,90,0.00,,,0.01,,2013-01-07 05:33:00,
2013-01-06 23:42:00,39.0,36.0,30.31,NNE,17,0.0,0.0,90,0.00,,,0.01,,2013-01-07 05:42:00,
2013-01-06 23:53:00,38.0,35.0,30.31,NNE,17,0.0,0.0,90,0.00,,,0.01,,2013-01-07 05:53:00,